MD8 TNCM-TQPF

Flight info

Callsign MD8
Flight time 0h -6m
Altitude 2500
Route MODOR2 MNOLO M576 PJM
Aircraft SF50/L-SDGRWY/L

Departure

Time 2026-04-23 18:40
Airport Princess Juliana International Airport (TNCM)

Arrival

Time 2026-04-23 18:33
Airport Clayton J. Lloyd International Airport (TQPF)
Time Latitude Longitude Altitude Speed Heading
2026-04-23 18:33 18.04160 -63.09757 14 ft 0 kts 352°
2026-04-23 18:38 18.04174 -63.09777 14 ft 7 kts 267°
2026-04-23 18:38 18.04174 -63.09783 14 ft 0 kts 296°
2026-04-23 18:39 18.04227 -63.09936 14 ft 41 kts 262°
2026-04-23 18:39 18.04145 -63.10489 60 ft 109 kts 261°
2026-04-23 18:39 18.03631 -63.10971 484 ft 125 kts 163°
2026-04-23 18:40 18.03375 -63.10229 1149 ft 140 kts 40°
2026-04-23 18:40 18.04498 -63.10358 1395 ft 196 kts 348°
2026-04-23 18:40 18.05992 -63.10676 1449 ft 240 kts 353°
2026-04-23 18:40 18.07706 -63.10938 1498 ft 239 kts 353°
2026-04-23 18:41 18.09412 -63.11215 1528 ft 245 kts 353°
2026-04-23 18:41 18.10969 -63.11442 1280 ft 220 kts 351°
2026-04-23 18:41 18.12467 -63.11350 982 ft 227 kts 21°
2026-04-23 18:41 18.13632 -63.11196 2740 ft 94 kts
2026-04-23 18:42 18.14513 -63.10688 2507 ft 187 kts 22°
2026-04-23 18:42 18.16120 -63.10471 1719 ft 255 kts 356°
2026-04-23 18:42 18.17783 -63.10577 1626 ft 203 kts 10°
2026-04-23 18:42 18.18882 -63.10109 2417 ft 180 kts 28°
2026-04-23 18:43 18.19870 -63.09291 2157 ft 171 kts 46°
2026-04-23 18:43 18.20359 -63.08094 1270 ft 170 kts 75°
2026-04-23 18:43 18.20485 -63.06992 586 ft 143 kts 85°
2026-04-23 18:43 18.20487 -63.06032 134 ft 112 kts 93°
2026-04-23 18:44 18.20480 -63.05355 101 ft 90 kts 93°
2026-04-23 18:44 18.20476 -63.04587 246 ft 124 kts 99°
2026-04-23 18:44 18.19689 -63.04222 574 ft 179 kts 216°
2026-04-23 18:44 18.19263 -63.05583 763 ft 218 kts 261°
2026-04-23 18:45 18.19097 -63.06909 1041 ft 168 kts 283°
2026-04-23 18:45 18.20043 -63.07393 1153 ft 165 kts 22°
2026-04-23 18:45 18.20492 -63.06479 457 ft 148 kts 90°
2026-04-23 18:45 18.20478 -63.05458 109 ft 119 kts 93°
2026-04-23 18:46 18.20459 -63.04776 163 ft 92 kts 95°
2026-04-23 18:46 18.20484 -63.03979 237 ft 121 kts 90°
2026-04-23 18:46 18.20112 -63.03083 501 ft 157 kts 160°
2026-04-23 18:46 18.19010 -63.03582 539 ft 206 kts 207°
2026-04-23 18:47 18.17651 -63.04293 999 ft 210 kts 198°
2026-04-23 18:47 18.17202 -63.05301 1847 ft 155 kts 328°
2026-04-23 18:47 18.18317 -63.05327 2085 ft 199 kts 42°
2026-04-23 18:47 18.18821 -63.03885 2228 ft 222 kts 97°
2026-04-23 18:48 18.18166 -63.02705 2504 ft 170 kts 130°
2026-04-23 18:48 18.17418 -63.01850 2478 ft 149 kts 130°
2026-04-23 18:48 18.16750 -63.01088 2459 ft 135 kts 130°
2026-04-23 18:48 18.16419 -63.00265 2389 ft 123 kts 79°
2026-04-23 18:49 18.16998 -62.99655 2175 ft 125 kts 25°
2026-04-23 18:49 18.17809 -62.99241 1973 ft 138 kts 21°
2026-04-23 18:49 18.18846 -62.99159 1778 ft 164 kts 353°
2026-04-23 18:49 18.19883 -62.99793 1880 ft 188 kts 313°
2026-04-23 18:50 18.20290 -63.00642 2065 ft 206 kts 286°
2026-04-23 18:50 18.19771 -63.02624 2419 ft 230 kts 227°
2026-04-23 18:50 18.18417 -63.03544 2694 ft 236 kts 205°
2026-04-23 18:50 18.16898 -63.04266 2973 ft 242 kts 203°
2026-04-23 18:51 18.15569 -63.05341 3217 ft 248 kts 234°
2026-04-23 18:51 18.15116 -63.07067 3458 ft 250 kts 273°
2026-04-23 18:51 18.15776 -63.08725 3700 ft 250 kts 311°
2026-04-23 18:51 18.17264 -63.09600 3944 ft 249 kts 349°
2026-04-23 18:52 18.18929 -63.09318 4176 ft 246 kts 28°
2026-04-23 18:52 18.20049 -63.07996 4431 ft 247 kts 67°
2026-04-23 18:52 18.20140 -63.06222 4679 ft 248 kts 105°
2026-04-23 18:52 18.19344 -63.04648 5041 ft 241 kts 123°
2026-04-23 18:53 18.18192 -63.03419 5408 ft 239 kts 151°
2026-04-23 18:53 18.16575 -63.03192 5775 ft 240 kts 191°
2026-04-23 18:53 18.15146 -63.04055 6156 ft 238 kts 220°
2026-04-23 18:53 18.13910 -63.05194 6543 ft 235 kts 216°
2026-04-23 18:54 18.12509 -63.06076 6917 ft 234 kts 207°
2026-04-23 18:54 18.11057 -63.06943 6989 ft 247 kts 210°
2026-04-23 18:54 18.09580 -63.07937 6993 ft 256 kts 212°
2026-04-23 18:54 18.08071 -63.08973 6997 ft 261 kts 212°
2026-04-23 18:55 18.06529 -63.10000 6999 ft 264 kts 212°
2026-04-23 18:55 18.04970 -63.11033 7000 ft 265 kts 211°
2026-04-23 18:55 18.03438 -63.12108 6996 ft 265 kts 218°
2026-04-23 18:55 18.02402 -63.13690 6983 ft 268 kts 251°
2026-04-23 18:56 18.02283 -63.15001 6981 ft 270 kts 275°
2026-04-23 18:56 18.03025 -63.16780 6982 ft 270 kts 310°
2026-04-23 18:56 18.04603 -63.17801 6981 ft 270 kts 346°
2026-04-23 18:56 18.06442 -63.17695 6983 ft 268 kts 20°
2026-04-23 18:57 18.08569 -63.16427 6989 ft 265 kts 33°
2026-04-23 18:57 18.09613 -63.15712 6984 ft 265 kts 33°
2026-04-23 18:57 18.11204 -63.14731 6989 ft 266 kts 29°
2026-04-23 18:57 18.12844 -63.13823 6987 ft 267 kts 28°
2026-04-23 18:58 18.14478 -63.12899 6987 ft 267 kts 29°
2026-04-23 18:58 18.16100 -63.11946 6988 ft 267 kts 30°
2026-04-23 18:58 18.17632 -63.10875 6980 ft 264 kts 46°
2026-04-23 18:58 18.18430 -63.09173 6983 ft 263 kts 81°
2026-04-23 18:59 18.18137 -63.07305 6981 ft 263 kts 117°
2026-04-23 18:59 18.16865 -63.05969 6980 ft 262 kts 151°
2026-04-23 18:59 18.15111 -63.05513 6984 ft 263 kts 180°
2026-04-23 18:59 18.13364 -63.06041 6987 ft 264 kts 207°
2026-04-23 19:00 18.11799 -63.07046 6979 ft 264 kts 212°
2026-04-23 19:00 18.10258 -63.08094 6979 ft 264 kts 211°
2026-04-23 19:00 18.08655 -63.09044 6986 ft 265 kts 207°
2026-04-23 19:00 18.07019 -63.09947 6931 ft 267 kts 207°
2026-04-23 19:01 18.05372 -63.10894 6794 ft 271 kts 208°
2026-04-23 19:01 18.03727 -63.11878 6656 ft 273 kts 211°
2026-04-23 19:01 18.02413 -63.13292 6495 ft 275 kts 241°
2026-04-23 19:01 18.02074 -63.15238 6479 ft 274 kts 275°
2026-04-23 19:02 18.02834 -63.17038 6480 ft 272 kts 310°
2026-04-23 19:02 18.04418 -63.18059 6481 ft 270 kts 345°
2026-04-23 19:02 18.06260 -63.17956 6482 ft 268 kts 20°
2026-04-23 19:02 18.07835 -63.16955 6487 ft 264 kts 37°
2026-04-23 19:03 18.09334 -63.15836 6490 ft 265 kts 34°
2026-04-23 19:03 18.10932 -63.14871 6490 ft 265 kts 28°
2026-04-23 19:03 18.12578 -63.13987 6487 ft 266 kts 28°
2026-04-23 19:03 18.14207 -63.13068 6483 ft 264 kts 34°
2026-04-23 19:04 18.15345 -63.11591 6480 ft 263 kts 68°
2026-04-23 19:04 18.15454 -63.09705 6482 ft 262 kts 104°
2026-04-23 19:04 18.14499 -63.08109 6482 ft 262 kts 139°
2026-04-23 19:04 18.12858 -63.07322 6485 ft 261 kts 166°
2026-04-23 19:05 18.11051 -63.07282 6483 ft 263 kts 190°
2026-04-23 19:05 18.09376 -63.08074 6268 ft 271 kts 214°
2026-04-23 19:05 18.07876 -63.09300 5998 ft 275 kts 217°
2026-04-23 19:05 18.06330 -63.10410 5731 ft 259 kts 210°
2026-04-23 19:06 18.04807 -63.11260 5464 ft 237 kts 206°
2026-04-23 19:06 18.03416 -63.12085 5188 ft 225 kts 217°
2026-04-23 19:06 18.02602 -63.13430 4898 ft 222 kts 257°
2026-04-23 19:06 18.02835 -63.14989 4607 ft 219 kts 299°
2026-04-23 19:07 18.03930 -63.16044 4320 ft 217 kts 336°
2026-04-23 19:07 18.05396 -63.16179 4027 ft 214 kts 14°
2026-04-23 19:07 18.06689 -63.15509 3997 ft 208 kts 31°
2026-04-23 19:07 18.07952 -63.14733 4001 ft 210 kts 30°
2026-04-23 19:08 18.09229 -63.13976 3997 ft 209 kts 34°
2026-04-23 19:08 18.10042 -63.12749 3985 ft 209 kts 76°
2026-04-23 19:08 18.09834 -63.11259 3984 ft 211 kts 114°
2026-04-23 19:08 18.08841 -63.10133 3923 ft 218 kts 148°
2026-04-23 19:09 18.07371 -63.09840 3737 ft 220 kts 185°
2026-04-23 19:09 18.05966 -63.10452 3493 ft 220 kts 210°
2026-04-23 19:09 18.04662 -63.11313 3250 ft 221 kts 211°
2026-04-23 19:09 18.03359 -63.12150 3010 ft 218 kts 218°
2026-04-23 19:10 18.02637 -63.13486 2983 ft 216 kts 261°
2026-04-23 19:10 18.02893 -63.15004 2983 ft 214 kts 300°
2026-04-23 19:10 18.03969 -63.16019 2983 ft 210 kts 337°
2026-04-23 19:10 18.05398 -63.16143 2982 ft 209 kts 15°
2026-04-23 19:11 18.06693 -63.15495 2990 ft 207 kts 31°
2026-04-23 19:11 18.07945 -63.14743 2991 ft 208 kts 30°
2026-04-23 19:11 18.09173 -63.13955 2988 ft 207 kts 40°
2026-04-23 19:11 18.09845 -63.12650 2982 ft 209 kts 79°
2026-04-23 19:12 18.09796 -63.11629 2982 ft 209 kts 104°
2026-04-23 19:12 18.08563 -63.10119 2984 ft 214 kts 153°
2026-04-23 19:12 18.07098 -63.09979 2979 ft 217 kts 193°
2026-04-23 19:12 18.05735 -63.10659 2999 ft 220 kts 209°
2026-04-23 19:13 18.04418 -63.11458 3005 ft 219 kts 207°
2026-04-23 19:13 18.03142 -63.12331 2980 ft 219 kts 225°
2026-04-23 19:13 18.02570 -63.13767 2980 ft 217 kts 269°
2026-04-23 19:13 18.03010 -63.15248 2981 ft 215 kts 307°
2026-04-23 19:14 18.04204 -63.16130 2983 ft 212 kts 344°
2026-04-23 19:14 18.05660 -63.16067 2982 ft 209 kts 21°
2026-04-23 19:14 18.06898 -63.15310 2968 ft 208 kts 41°
2026-04-23 19:14 18.07709 -63.14089 3118 ft 202 kts 69°
2026-04-23 19:15 18.07466 -63.12658 2651 ft 227 kts 131°
2026-04-23 19:15 18.06177 -63.13060 1850 ft 242 kts 223°
2026-04-23 19:15 18.04947 -63.14399 1115 ft 249 kts 235°
2026-04-23 19:15 18.04212 -63.15974 928 ft 229 kts 244°
2026-04-23 19:16 18.03106 -63.16759 986 ft 177 kts 183°
2026-04-23 19:16 18.02250 -63.17434 1083 ft 174 kts 254°
2026-04-23 19:16 18.02756 -63.18543 1140 ft 182 kts 333°
2026-04-23 19:17 18.04904 -63.17861 1662 ft 166 kts 40°
2026-04-23 19:17 18.05646 -63.17019 1369 ft 171 kts 64°
2026-04-23 19:17 18.05832 -63.15831 1402 ft 158 kts 89°
2026-04-23 19:17 18.05919 -63.14706 1389 ft 150 kts 79°
2026-04-23 19:18 18.06136 -63.13707 1562 ft 133 kts 73°
2026-04-23 19:18 18.06413 -63.12759 1377 ft 145 kts 69°
2026-04-23 19:18 18.06628 -63.11740 1268 ft 143 kts 97°
2026-04-23 19:18 18.06011 -63.10971 1202 ft 150 kts 159°
2026-04-23 19:19 18.04854 -63.12292 881 ft 158 kts 295°
2026-04-23 19:19 18.05667 -63.12945 821 ft 146 kts 351°
2026-04-23 19:20 18.06838 -63.11794 964 ft 126 kts 106°
2026-04-23 19:20 18.06365 -63.11003 929 ft 133 kts 141°
2026-04-23 19:20 18.05455 -63.11043 844 ft 150 kts 227°
2026-04-23 19:20 18.05429 -63.12065 789 ft 150 kts 310°
2026-04-23 19:21 18.06324 -63.12386 882 ft 136 kts 20°
2026-04-23 19:21 18.06437 -63.11146 1008 ft 123 kts 173°
2026-04-23 19:21 18.05777 -63.11693 861 ft 131 kts 258°
2026-04-23 19:22 18.06079 -63.12503 776 ft 124 kts 327°
2026-04-23 19:22 18.06846 -63.12441 713 ft 116 kts 63°
2026-04-23 19:22 18.06129 -63.11032 900 ft 165 kts 150°
2026-04-23 19:23 18.05143 -63.10599 545 ft 133 kts 158°
2026-04-23 19:23 18.04348 -63.10408 192 ft 103 kts 182°
2026-04-23 19:23 18.04123 -63.10922 15 ft 74 kts 239°
2026-04-23 19:24 18.04227 -63.11172 15 ft 5 kts 77°
2026-04-23 19:24 18.04226 -63.11188 15 ft 16 kts 251°